AXI750 KTTN-KSYR

Flight info

Callsign AXI750
Flight time 0h 40m
Altitude 43000
Route PTW SARAA RAV TYMAN/N0487F410 Q227 STENT CFB/N0448F170 T335 CORTA
Aircraft C750/M-SBDE3FGHRWXY/S

Departure

Time 2026-04-24 01:03
Airport Trenton Mercer Airport (KTTN)

Arrival

Time 2026-04-24 01:43
Airport Syracuse Hancock International Airport (KSYR)
Time Latitude Longitude Altitude Speed Heading
2026-04-24 00:50 40.28091 -74.81024 205 ft 0 kts 270°
2026-04-24 00:57 40.28091 -74.81072 204 ft 9 kts 270°
2026-04-24 00:57 40.28054 -74.81191 202 ft 14 kts 282°
2026-04-24 00:58 40.28085 -74.81331 207 ft 16 kts 290°
2026-04-24 00:58 40.28154 -74.81407 207 ft 11 kts 329°
2026-04-24 00:58 40.28211 -74.81480 213 ft 15 kts 288°
2026-04-24 00:58 40.28175 -74.81559 217 ft 11 kts 222°
2026-04-24 00:59 40.28142 -74.81599 216 ft 4 kts 189°
2026-04-24 00:59 40.28085 -74.81600 212 ft 11 kts 192°
2026-04-24 00:59 40.27995 -74.81616 209 ft 15 kts 188°
2026-04-24 00:59 40.27884 -74.81639 205 ft 17 kts 192°
2026-04-24 01:00 40.27767 -74.81665 205 ft 18 kts 190°
2026-04-24 01:00 40.27634 -74.81697 201 ft 21 kts 190°
2026-04-24 01:00 40.27482 -74.81729 194 ft 22 kts 192°
2026-04-24 01:00 40.27375 -74.81790 184 ft 16 kts 239°
2026-04-24 01:01 40.27307 -74.81914 181 ft 17 kts 226°
2026-04-24 01:01 40.27227 -74.82023 181 ft 16 kts 225°
2026-04-24 01:01 40.27144 -74.82133 178 ft 17 kts 227°
2026-04-24 01:01 40.27092 -74.82207 178 ft 6 kts 222°
2026-04-24 01:02 40.27055 -74.82222 178 ft 5 kts 178°
2026-04-24 01:02 40.27032 -74.82206 179 ft 8 kts 142°
2026-04-24 01:02 40.26986 -74.82149 179 ft 4 kts 103°
2026-04-24 01:02 40.27087 -74.82007 180 ft 70 kts 46°
2026-04-24 01:03 40.27652 -74.81234 434 ft 136 kts 47°
2026-04-24 01:03 40.28312 -74.80278 1157 ft 145 kts 44°
2026-04-24 01:03 40.29242 -74.79667 1750 ft 162 kts
2026-04-24 01:03 40.30418 -74.79802 2381 ft 177 kts 348°
2026-04-24 01:04 40.31725 -74.80100 2945 ft 203 kts 347°
2026-04-24 01:04 40.33157 -74.80634 3368 ft 229 kts 328°
2026-04-24 01:04 40.34210 -74.82288 3724 ft 252 kts 295°
2026-04-24 01:04 40.34766 -74.84441 4780 ft 247 kts 288°
2026-04-24 01:05 40.35269 -74.86604 5706 ft 250 kts 288°
2026-04-24 01:05 40.35773 -74.88771 6985 ft 246 kts 289°
2026-04-24 01:05 40.36247 -74.90931 8238 ft 248 kts 288°
2026-04-24 01:05 40.36469 -74.93189 9534 ft 251 kts 279°
2026-04-24 01:06 40.36546 -74.95506 10477 ft 261 kts 279°
2026-04-24 01:06 40.36714 -74.97984 10820 ft 286 kts 282°
2026-04-24 01:06 40.36974 -75.00661 11026 ft 313 kts 282°
2026-04-24 01:06 40.37222 -75.03539 11763 ft 319 kts 281°
2026-04-24 01:07 40.37443 -75.06443 12626 ft 322 kts 281°
2026-04-24 01:07 40.37684 -75.09399 13320 ft 329 kts 282°
2026-04-24 01:07 40.37939 -75.12408 14031 ft 335 kts 282°
2026-04-24 01:07 40.38189 -75.15459 14782 ft 337 kts 281°
2026-04-24 01:08 40.38434 -75.18527 15564 ft 339 kts 281°
2026-04-24 01:08 40.38684 -75.21608 16383 ft 341 kts 281°
2026-04-24 01:08 40.38937 -75.24706 17203 ft 343 kts 280°
2026-04-24 01:08 40.39189 -75.27830 18046 ft 345 kts 280°
2026-04-24 01:09 40.39441 -75.30972 18804 ft 348 kts 280°
2026-04-24 01:09 40.39696 -75.34153 19536 ft 352 kts 280°
2026-04-24 01:09 40.39866 -75.36278 20019 ft 354 kts 280°
2026-04-24 01:09 40.40209 -75.40579 20998 ft 360 kts 279°
2026-04-24 01:10 40.40509 -75.43858 21626 ft 363 kts 284°
2026-04-24 01:10 40.41510 -75.46893 22235 ft 365 kts 301°
2026-04-24 01:10 40.42534 -75.48706 22736 ft 367 kts 310°
2026-04-24 01:10 40.44424 -75.50991 23506 ft 373 kts 321°
2026-04-24 01:11 40.46663 -75.52673 24108 ft 380 kts 333°
2026-04-24 01:11 40.49209 -75.53735 24716 ft 387 kts 340°
2026-04-24 01:11 40.51821 -75.54634 25327 ft 390 kts 341°
2026-04-24 01:11 40.54461 -75.55556 25931 ft 393 kts 340°
2026-04-24 01:12 40.57114 -75.56495 26519 ft 396 kts 340°
2026-04-24 01:12 40.59789 -75.57436 27119 ft 400 kts 340°
2026-04-24 01:12 40.62489 -75.58382 27713 ft 403 kts 340°
2026-04-24 01:12 40.65208 -75.59339 28314 ft 406 kts 340°
2026-04-24 01:13 40.67952 -75.60307 28932 ft 409 kts 340°
2026-04-24 01:13 40.70712 -75.61281 29502 ft 412 kts 340°
2026-04-24 01:13 40.73499 -75.62264 29934 ft 418 kts 340°
2026-04-24 01:13 40.76359 -75.63278 29930 ft 433 kts 341°
2026-04-24 01:14 40.79269 -75.64309 29945 ft 445 kts 341°
2026-04-24 01:14 40.82306 -75.65381 29948 ft 458 kts 341°
2026-04-24 01:14 40.85424 -75.66483 29946 ft 468 kts 341°
2026-04-24 01:15 40.91774 -75.68735 29957 ft 475 kts 341°
2026-04-24 01:15 40.98166 -75.71007 29956 ft 476 kts 341°
2026-04-24 01:16 41.04541 -75.73278 29958 ft 476 kts 341°
2026-04-24 01:16 41.10952 -75.75566 29972 ft 476 kts 341°
2026-04-24 01:17 41.17335 -75.77849 29970 ft 475 kts 341°
2026-04-24 01:17 41.23719 -75.80137 29966 ft 476 kts 341°
2026-04-24 01:18 41.30127 -75.82438 29964 ft 477 kts 341°
2026-04-24 01:18 41.36518 -75.84737 29976 ft 474 kts 341°
2026-04-24 01:19 41.42847 -75.87021 29971 ft 474 kts 341°
2026-04-24 01:19 41.45998 -75.88155 29708 ft 454 kts 341°
2026-04-24 01:19 41.48930 -75.89202 29044 ft 420 kts 341°
2026-04-24 01:19 41.51675 -75.90199 28526 ft 405 kts 340°
2026-04-24 01:20 41.54389 -75.91199 28071 ft 403 kts 340°
2026-04-24 01:20 41.57075 -75.92174 27529 ft 398 kts 341°
2026-04-24 01:20 41.59756 -75.93137 27007 ft 396 kts 341°
2026-04-24 01:20 41.62404 -75.94098 26493 ft 393 kts 340°
2026-04-24 01:21 41.65048 -75.95063 26003 ft 400 kts 340°
2026-04-24 01:21 41.67692 -75.96024 25879 ft 386 kts 341°
2026-04-24 01:21 41.70295 -75.96970 25884 ft 396 kts 340°
2026-04-24 01:21 41.72971 -75.97949 25886 ft 400 kts 341°
2026-04-24 01:22 41.75672 -75.98933 25903 ft 403 kts 341°
2026-04-24 01:22 41.78364 -75.99912 25884 ft 402 kts 341°
2026-04-24 01:22 41.81067 -76.00899 25883 ft 401 kts 341°
2026-04-24 01:22 41.83767 -76.01889 25885 ft 402 kts 341°
2026-04-24 01:23 41.86464 -76.02875 25883 ft 402 kts 341°
2026-04-24 01:23 41.89166 -76.03863 25883 ft 402 kts 341°
2026-04-24 01:23 41.91869 -76.04855 25562 ft 402 kts 341°
2026-04-24 01:23 41.94549 -76.05836 25042 ft 398 kts 340°
2026-04-24 01:24 41.97175 -76.06800 24527 ft 395 kts 340°
2026-04-24 01:24 41.99816 -76.07772 24001 ft 392 kts 340°
2026-04-24 01:24 42.02440 -76.08737 23480 ft 390 kts 340°
2026-04-24 01:24 42.05048 -76.09696 22938 ft 385 kts 340°
2026-04-24 01:25 42.07619 -76.10643 22433 ft 376 kts 340°
2026-04-24 01:25 42.10083 -76.11546 21949 ft 364 kts 340°
2026-04-24 01:25 42.12522 -76.12452 21468 ft 362 kts 340°
2026-04-24 01:25 42.14954 -76.13279 20983 ft 362 kts 344°
2026-04-24 01:26 42.17486 -76.13453 20511 ft 367 kts 356°
2026-04-24 01:26 42.20023 -76.13154 20042 ft 363 kts 359°
2026-04-24 01:26 42.22530 -76.12850 19563 ft 360 kts 358°
2026-04-24 01:26 42.25022 -76.12572 19085 ft 357 kts 358°
2026-04-24 01:27 42.27464 -76.12295 18623 ft 354 kts 358°
2026-04-24 01:27 42.29911 -76.12007 18132 ft 351 kts 358°
2026-04-24 01:27 42.32337 -76.11722 17652 ft 348 kts 358°
2026-04-24 01:27 42.34741 -76.11447 17196 ft 345 kts 358°
2026-04-24 01:28 42.37120 -76.11172 16743 ft 341 kts 358°
2026-04-24 01:28 42.39469 -76.10897 16298 ft 336 kts 358°
2026-04-24 01:28 42.41793 -76.10625 15843 ft 333 kts 358°
2026-04-24 01:28 42.44094 -76.10359 15411 ft 330 kts 358°
2026-04-24 01:29 42.46373 -76.10094 14981 ft 327 kts 358°
2026-04-24 01:29 42.48629 -76.09830 14551 ft 324 kts 358°
2026-04-24 01:29 42.50868 -76.09569 14124 ft 321 kts 358°
2026-04-24 01:29 42.53062 -76.09313 13700 ft 318 kts 358°
2026-04-24 01:30 42.55269 -76.09056 13217 ft 318 kts 358°
2026-04-24 01:30 42.57469 -76.08799 12800 ft 316 kts 358°
2026-04-24 01:30 42.59664 -76.08541 12415 ft 314 kts 358°
2026-04-24 01:30 42.61842 -76.08285 12004 ft 315 kts 358°
2026-04-24 01:31 42.64034 -76.08030 11582 ft 315 kts 358°
2026-04-24 01:31 42.66211 -76.07775 11164 ft 308 kts 358°
2026-04-24 01:31 42.68252 -76.07519 10837 ft 279 kts 357°
2026-04-24 01:31 42.70156 -76.07292 10997 ft 286 kts 357°
2026-04-24 01:32 42.72250 -76.07116 11010 ft 303 kts 356°
2026-04-24 01:32 42.74229 -76.06970 10986 ft 267 kts 355°
2026-04-24 01:32 42.76017 -76.06840 10986 ft 256 kts 355°
2026-04-24 01:32 42.77790 -76.06745 10822 ft 258 kts 354°
2026-04-24 01:33 42.79578 -76.06689 10435 ft 256 kts 353°
2026-04-24 01:33 42.81356 -76.06667 10034 ft 255 kts 352°
2026-04-24 01:33 42.83086 -76.06681 9992 ft 252 kts 351°
2026-04-24 01:33 42.84836 -76.06734 9994 ft 252 kts 351°
2026-04-24 01:34 42.86577 -76.06882 9973 ft 248 kts 343°
2026-04-24 01:34 42.88018 -76.07996 9747 ft 239 kts 313°
2026-04-24 01:34 42.88906 -76.09840 9329 ft 230 kts 300°
2026-04-24 01:34 42.89622 -76.11788 8973 ft 229 kts 298°
2026-04-24 01:35 42.90310 -76.13743 8605 ft 229 kts 298°
2026-04-24 01:35 42.90994 -76.15706 8213 ft 231 kts 297°
2026-04-24 01:35 42.91697 -76.17687 7836 ft 232 kts 298°
2026-04-24 01:35 42.92411 -76.19668 7472 ft 234 kts 298°
2026-04-24 01:36 42.93130 -76.21658 7097 ft 233 kts 298°
2026-04-24 01:36 42.93844 -76.23648 6733 ft 234 kts 298°
2026-04-24 01:36 42.94559 -76.25644 6367 ft 235 kts 298°
2026-04-24 01:36 42.95279 -76.27653 5979 ft 236 kts 298°
2026-04-24 01:37 42.95998 -76.29663 5598 ft 236 kts 298°
2026-04-24 01:37 42.96718 -76.31689 5218 ft 237 kts 298°
2026-04-24 01:37 42.97432 -76.33711 4843 ft 237 kts 298°
2026-04-24 01:37 42.98144 -76.35735 4450 ft 234 kts 298°
2026-04-24 01:38 42.98896 -76.37635 4010 ft 221 kts 310°
2026-04-24 01:38 43.00166 -76.38653 3414 ft 220 kts 348°
2026-04-24 01:38 43.01609 -76.38190 3156 ft 213 kts 31°
2026-04-24 01:38 43.02432 -76.36481 3200 ft 221 kts 65°
2026-04-24 01:39 43.03000 -76.34524 3330 ft 221 kts 59°
2026-04-24 01:39 43.03778 -76.32729 3328 ft 219 kts 53°
2026-04-24 01:39 43.04591 -76.30980 3321 ft 218 kts 53°
2026-04-24 01:39 43.05470 -76.29293 3251 ft 216 kts 46°
2026-04-24 01:40 43.06489 -76.27787 3048 ft 215 kts 41°
2026-04-24 01:40 43.07493 -76.26337 2817 ft 203 kts 42°
2026-04-24 01:40 43.08366 -76.25055 2551 ft 166 kts 43°
2026-04-24 01:40 43.09028 -76.23969 2365 ft 136 kts 45°
2026-04-24 01:41 43.09535 -76.22933 2047 ft 130 kts 52°
2026-04-24 01:41 43.09945 -76.21856 1783 ft 127 kts 65°
2026-04-24 01:41 43.10182 -76.20692 1572 ft 126 kts 69°
2026-04-24 01:41 43.10402 -76.19529 1383 ft 126 kts 73°
2026-04-24 01:42 43.10553 -76.18360 1209 ft 123 kts 80°
2026-04-24 01:42 43.10639 -76.17215 1085 ft 123 kts 82°
2026-04-24 01:42 43.10704 -76.16051 917 ft 122 kts 87°
2026-04-24 01:42 43.10738 -76.14904 755 ft 119 kts 85°
2026-04-24 01:43 43.10781 -76.13780 607 ft 118 kts 86°
2026-04-24 01:43 43.10819 -76.12651 457 ft 119 kts 85°
2026-04-24 01:43 43.10855 -76.11601 421 ft 93 kts 87°
2026-04-24 01:43 43.10875 -76.10987 425 ft 47 kts 90°
2026-04-24 01:44 43.10886 -76.10602 420 ft 20 kts 96°
2026-04-24 01:44 43.10797 -76.10555 421 ft 14 kts 175°
2026-04-24 01:44 43.10747 -76.10551 421 ft 6 kts 178°
2026-04-24 01:44 43.10694 -76.10549 417 ft 10 kts 180°
2026-04-24 01:45 43.10648 -76.10625 421 ft 15 kts 261°
2026-04-24 01:45 43.10643 -76.10800 421 ft 19 kts 268°
2026-04-24 01:45 43.10638 -76.10981 421 ft 19 kts 267°
2026-04-24 01:45 43.10631 -76.11159 421 ft 19 kts 268°
2026-04-24 01:46 43.10656 -76.11285 418 ft 11 kts 343°
2026-04-24 01:46 43.10721 -76.11309 415 ft 10 kts 316°
2026-04-24 01:46 43.10735 -76.11408 421 ft 11 kts 270°
2026-04-24 01:46 43.10733 -76.11538 421 ft 16 kts 266°
2026-04-24 01:47 43.10724 -76.11674 418 ft 7 kts 238°
2026-04-24 01:47 43.10683 -76.11691 421 ft 6 kts 204°
2026-04-24 01:47 43.10683 -76.11729 421 ft 7 kts 293°
2026-04-24 01:47 43.10684 -76.11754 421 ft 0 kts 271°